Etusivu
METAR-TAF:

METAR-TAF

Lentoasemat :

Monroe Municipal Airport

Monroe, Wisconsin, Yhdysvallat

Leveyspiiri: 42-36-54N, Pituuspiiri: 089-35-27W, korkeus merenpinnasta: 331 m

Tämänhetkinen sää

Tämä raportti tehtiin 23 minuuttia sitten, kello 23.55 UTC
Tuuli 9 kn etelästä puuskistuen 15 kn:hen
Lämpötila 28°C
Kosteus 62%
Ilmanpaine 1017 hPa
Näkyvyys: 16.1 km
selkeää

METAR: KEFT 082355Z AUTO 18009G15KT 10SM CLR 28/20 A3004 RMK AO2 T02810200 10305 20281

Aika: 19:18 (00:18 UTC)


TAF: puuttuu

Säähavainnot ja -ennusteet yli 4000 lentoasemalta (METAR- ja TAF-raportit).

Käytössä olevat sääasemat on merkitty karttaan keltaisilla ja punaisilla pisteillä.

Aseta hiiri pisteen päälle nähdäksesi sääaseman nimen.

Klikkaa sitten nähdäksesi säähavainnot ja -ennusteet.

Kartan vaihtaminen: klikkaa mustalla rastilla varustettuja vihreitä pisteitä, niin voit zoomata sisään; viivalla varustettua vihreää pistettä, niin voit zoomata ulos tai vihreitä nuolia, niin pääset viereisille kartoille.


METAR-TAF: